Flag for United Kingdom Weather past 2 weeks in Newport, Wales, United Kingdom

Now
45 °F

Passing clouds.


Feels Like: 36 °F
Forecast: 44 / 49 °F
Wind: 23 mph from West

Location: Bristol / Lulsgate

Current Time: Dec 20, 2014 at 7:22:30 AM

Latest Report: Dec 20, 2014 at 6:50 AM


Visibility: N/A

Pressure: 30.27 "Hg

Humidity: 81%

Dew point: 39 °F

Location of NewportLocation

Historic Weather in Newport — Graph

°F

Newport temperature yesterday

Maximum temperature yesterday: 52 °F (at 12:20 AM)
Minimum temperature yesterday: 41 °F (at 6:20 PM)
Average temperature yesterday: 45 °F

Past Weeks' High & Low Weather Summary

 TemperatureHumidityPressure
High54 °F (Dec 18, 12:20 PM)100% (Dec 7, 3:20 AM)30.39 "Hg (Dec 7, 3:20 AM)
Low32 °F (Dec 6, 3:20 AM)61% (Dec 5, 1:50 PM)29.27 "Hg (Dec 12, 2:50 AM)
Average43 °F87%29.96 "Hg
* Reported Dec 5 6:20 AM — Dec 20 6:20 AM, Newport, Weather by CustomWeather, © 2014

Note: Actual official high and low records may vary slightly from our data, if they occured in-between our weather recording intervals... More about our weather records

Advertising

Newport weather history for previous 24 hours

 ConditionsComfort  
Time TempWeatherWind HumidityBarometerVisibility
6:20 AM
Dec 20
45 °FPartly cloudy.22 mph81%30.27 "HgN/A
5:50 AM43 °FPassing clouds.20 mph81%30.27 "HgN/A
5:20 AM43 °FPassing clouds.18 mph81%30.27 "HgN/A
4:50 AM45 °FPartly cloudy.20 mph81%30.27 "HgN/A
4:20 AM45 °FPassing clouds.20 mph76%30.24 "HgN/A
3:50 AM45 °FPassing clouds.20 mph76%30.24 "HgN/A
3:20 AM45 °FOvercast.21 mph76%30.24 "HgN/A
2:50 AM45 °FPassing clouds.22 mph76%30.24 "HgN/A
2:20 AM45 °FPassing clouds.20 mph76%30.24 "HgN/A
1:50 AM43 °FPassing clouds.21 mph81%30.24 "HgN/A
1:20 AM43 °FPassing clouds.18 mph81%30.24 "HgN/A
12:50 AM43 °FClear.21 mph81%30.24 "Hg10 mi
12:20 AM41 °FClear.18 mph87%30.24 "Hg10 mi
11:50 PM
Dec 19
43 °FClear.18 mph81%30.24 "Hg10 mi
11:20 PM43 °FPassing clouds.17 mph81%30.24 "HgN/A
10:50 PM41 °FPassing clouds.17 mph87%30.24 "HgN/A
10:20 PM43 °FPassing clouds.14 mph81%30.24 "HgN/A
9:50 PM43 °FPassing clouds.15 mph81%30.24 "HgN/A
9:20 PM43 °FClear.15 mph81%30.21 "Hg10 mi
8:50 PM41 °FClear.15 mph87%30.21 "Hg10 mi
8:20 PM41 °FClear.14 mph87%30.21 "Hg10 mi
7:50 PM41 °FClear.12 mph87%30.21 "Hg10 mi
7:20 PM41 °FPassing clouds.12 mph87%30.18 "HgN/A
6:50 PM41 °FPassing clouds.13 mph87%30.18 "HgN/A
6:20 PM41 °FPassing clouds.12 mph81%30.18 "HgN/A
5:50 PM43 °FPassing clouds.14 mph76%30.15 "HgN/A
5:20 PM43 °FPassing clouds.13 mph81%30.15 "HgN/A
4:50 PM43 °FPassing clouds.13 mph81%30.15 "HgN/A
4:20 PM43 °FPassing clouds.14 mph81%30.12 "HgN/A
3:50 PM43 °FPassing clouds.18 mph81%30.12 "HgN/A
3:20 PM45 °FPassing clouds.16 mph76%30.09 "HgN/A
2:50 PM45 °FScattered clouds.16 mph76%30.09 "HgN/A
2:20 PM46 °FPassing clouds.17 mph76%30.07 "HgN/A
1:50 PM45 °FPassing clouds.18 mph76%30.07 "HgN/A
1:20 PM45 °FPassing clouds.22 mph76%30.07 "HgN/A
12:50 PM46 °FPassing clouds.23 mph71%30.07 "HgN/A
12:20 PM46 °FSunny.18 mph76%30.07 "Hg10 mi
11:50 AM43 °FScattered clouds.20 mph81%30.04 "HgN/A
11:20 AM45 °FPassing clouds.16 mph76%30.04 "HgN/A
10:50 AM45 °FPassing clouds.17 mph76%30.04 "HgN/A
10:20 AM43 °FPassing clouds.14 mph81%30.04 "HgN/A
9:50 AM43 °FScattered clouds.13 mph81%30.01 "HgN/A
9:20 AM43 °FPassing clouds.12 mph81%29.98 "HgN/A
8:50 AM43 °FScattered clouds.15 mph81%29.98 "HgN/A
8:20 AM43 °FScattered clouds.17 mph81%29.95 "HgN/A
7:50 AM45 °FPassing clouds.21 mph81%29.92 "HgN/A
7:20 AM46 °FPassing clouds.16 mph93%29.92 "HgN/A
Weather by CustomWeather, © 2014

See weather overviewHow to use our weather pages